Location: Oshawa
(43.9000°N, 78.8670°W)
Time: 23:45:57
(UTC-04:00)

CARTOSAT-1 - Pass Details

Date: 22 August 2017
Orbit: 616 x 621 km, 97.9° (Epoch: 25 September)

Event Time Altitude Azimuth Distance (km) Brightness Sun altitude
Exits shadow 23:27:22 43° 321° (NW) 872 4.6 -29.2°
Drops below altitude 10° 23:30:27 10° 341° (NNW) 1,996 7.0 -29.5°
Sets 23:32:40 0° 345° (NNW) 2,907 8.1 -29.7°
